Location: Unspecified
(0.0000°N, 0.0000°E)
Time: 13:47:00
(UTC+00:00)

A-11 Canister half - Pass Details

Date: 21 November 2019
Orbit: 1515 x 1685 km, 47.2° (Epoch: 08 December)

Event Time Altitude Azimuth Distance (km) Brightness Sun altitude
Rises 02:07:40 0° 320° (NW) 4,859 - -50.0°
Reaches altitude 10° 02:10:49 10° 321° (NW) 3,853 - -49.3°
Maximum altitude 02:20:40 89° 51° (NE) 1,588 - -47.2°
Exits shadow 02:24:14 45° 140° (SE) 2,030 9.7 -46.4°
Drops below altitude 10° 02:30:09 10° 140° (SE) 3,728 11.5 -45.1°
Sets 02:33:09 0° 140° (SE) 4,695 12.2 -44.5°
